AirNav   Air Wisconsin pilot careers
 
 881 users online  

Y93 Atlanta Municipal Airport
Atlanta, Michigan, USA

GOING TO ATLANTA?


FAA INFORMATION EFFECTIVE 08 NOVEMBER 2018

Location

FAA Identifier: Y93
Lat/Long: 44-59-48.8216N / 084-07-38.0437W
44-59.813693N / 084-07.634062W
44.9968949 / -84.1272344
(estimated)
Elevation: 880 ft. / 268 m (estimated)
Variation: 06W (1985)
From city: 1 mile SE of ATLANTA, MI
Time zone: UTC -5 (UTC -4 during Daylight Saving Time)
Zip code: 49709

Airport Operations

Airport use: Open to the public
Activation date: 04/1940
Control tower: no
ARTCC: MINNEAPOLIS CENTER
FSS: LANSING FLIGHT SERVICE STATION
NOTAMs facility: LAN (NOTAM-D service available)
Attendance: ON REQ
Pattern altitude: 1880 ft. MSL
Wind indicator: lighted
Segmented circle: yes
Lights: ACTVT LIRL RY 13/31 & LIRL RY 05/23, PAPI RY 23 - CTAF.

Airport Communications

CTAF: 122.9

Nearby radio navigation aids

VOR radial/distance  VOR name  Freq  Var
GLRr098/24.5GAYLORD VOR/DME109.2006W
APNr265/24.7ALPENA VORTAC108.8007W
CGGr060/(31.8)GRAYLING VOR109.8006W

 
NDB name  Hdg/Dist  Freq  Var  ID
GRAYLING070/33.335906WGYG --. -.-- --.

Airport Services

Parking: tiedowns

Runway Information

Runway 5/23

Dimensions: 3000 x 60 ft. / 914 x 18 m
Surface: asphalt, in good condition
Runway edge lights: low intensity
RUNWAY 5  RUNWAY 23
Latitude: 44-59.624167N44-59.963167N
Longitude: 084-07.884000W084-07.378167W
Elevation: 880.0 ft.872.0 ft.
Gradient: 0.3% UP
Traffic pattern: leftleft
Runway heading: 052 magnetic, 046 true232 magnetic, 226 true
Displaced threshold: 1494 ft.370 ft.
Markings: basic, in good conditionbasic, in good condition
Visual slope indicator: 2-light PAPI on left (4.00 degrees glide path)
Obstructions: 80 ft. trees, 392 ft. from runway, 135 ft. left of centerline, 3:1 slope to clear
APCH RATIO 25:1 AT DSPLCD THLD.
46 ft. trees, 904 ft. from runway, 125 ft. right of centerline, 15:1 slope to clear
APCH RATIO 25:1 AT DSPLCD THLD BASED ON STRAIGHT OUT.

Runway 13/31

Dimensions: 3223 x 100 ft. / 982 x 30 m
Surface: turf, in fair condition
Runway edge lights: low intensity
LIRL OPERATES JUN THRU SEP.
Runway edge markings: 13/31 MKD WITH 3 FT YELLOW CONES.
RUNWAY 13  RUNWAY 31
Latitude: 44-59.992000N44-59.672667N
Longitude: 084-07.935333W084-07.338333W
Elevation: 876.0 ft.872.8 ft.
Traffic pattern: leftleft
Runway heading: 133 magnetic, 127 true313 magnetic, 307 true
Displaced threshold: 758 ft.569 ft.
Obstructions: 58 ft. trees, 50 ft. from runway, 120 ft. left of centerline
APCH RATIO 20:1 AT DSPLCD THLD.
62 ft. trees, 200 ft. from runway, 125 ft. right of centerline, 3:1 slope to clear
APCH RATIO 19:1 AT DSPLCD THLD OVR 50 FT TREES, 911 FT FM DSPLCD THLD, 0 B; 12:1 OVR 73 FT TREES, 939 FT DSTC, 70 FT L.

Airport Ownership and Management from official FAA records

Ownership: Publicly-owned
Owner: BRILEY & AVERY TWPS
P.O. BOX 322
ATLANTA, MI 49709
Phone 989-785-4050
BRILEY TWP OFC.
Manager: DALE LA CLAIR
11746 COUNTY RD 487, 7570 M-32
ATLANTA, MI 49709
Phone (989) 785-4590
TOM WEBER, ASST. MGR 989-306-0926

Airport Operational Statistics

Aircraft based on the field: 12
Single engine airplanes: 11
Helicopters: 1
    
Aircraft operations: avg 27/week *
50% transient general aviation
50% local general aviation
* for 12-month period ending 31 December 2016

Additional Remarks

FOR WINTER COND/SNOW REMOVAL RY 05/23 CONFIRM PRIOR TO USE; CALL 989-306-6408 OR 989-306-0926; NO SNOW REMOVAL RY 13/31.
RY 13/31 CLSD NOV-APR & WHEN SNOW COVERED.

Instrument Procedures

There are no published instrument procedures at Y93.

Some nearby airports with instrument procedures:

KGLR - Gaylord Regional Airport (24 nm W)
KAPN - Alpena County Regional Airport (25 nm E)
KPZQ - Presque Isle County Airport (28 nm NE)
KGOV - Grayling Army Airfield (32 nm SW)
KBFA - Boyne Mountain Airport (35 nm W)
 
Loc | Ops | Rwys | IFR | FBO | Links
Com | Nav | Svcs | Stats | Notes


 
Area around Y93 (Atlanta Municipal Airport)
 
Road maps at: MapQuest Bing Google
 
Aerial photo
WARNING: Photo may not be current or correct
Aerial photo of Y93 (Atlanta Municipal Airport)
Do you have a better or more recent aerial photo of Atlanta Municipal Airport that you would like to share? If so, please send us your photo.

 
Sectional chart

 
Airport distance calculator
Flying to Atlanta Municipal Airport? Find the distance to fly.

From to Y93

Sunrise and sunset
Times for 17-Nov-2018
 Local
(UTC-5)
 Zulu
(UTC)
Morning civil twilight07:0612:06
Sunrise07:3812:38
Sunset17:0522:05
Evening civil twilight17:3722:37

Current date and time
Zulu (UTC)  17-Nov-2018 21:49:56
Local (UTC-5)  17-Nov-2018 16:49:56
 
METAR
KGLR 
24nm W 
172053Z AUTO VRB04KT 9SM -SN OVC039 M04/M07 A3026 RMK AO2 SNE12B42 SLP266 P0000 60000 T10391072 53005
KAPN 
24nm E 
172054Z AUTO 32006KT 10SM OVC048 M01/M09 A3029 RMK AO2 SLP266 60000 T10111094 53007
KPZQ 
28nm NE 
172135Z AUTO 29010KT 10SM OVC049 M02/M08 A3030 RMK AO2 T10181080
KGOV 
32nm SW 
172138Z AUTO 34005KT 10SM BKN029 OVC044 M03/M07 A3027 RMK AO2 UPB08E18 SLP273 $
KMGN 
42nm NW 
172135Z AUTO 30007KT 10SM OVC042 M02/M08 A3030 RMK AO2 T10211090
KSLH 
42nm NW 
172135Z AUTO 30011G15KT 10SM -SN OVC042 M03/M08 A3030 RMK AO2 T10271078
KPLN 
44nm NW 
172054Z AUTO 32011KT 10SM OVC044 M03/M09 A3030 RMK AO2 SNB02E26 SLP270 P0000 60000 T10281089 51002
KHTL 
45nm SW 
172053Z AUTO 34008KT 10SM FEW033 FEW043 OVC055 M02/M07 A3027 RMK AO2 SLP265 60000 T10171072 53004
KOSC 
45nm SE 
172135Z AUTO 34004KT 10SM OVC050 M01/M06 A3029 RMK AO2 T10101060
KY31 
45nm S 
172135Z AUTO 35004KT 10SM OVC050 M01/M09 A3028 RMK AO2 T10081086
TAF
KAPN 
24nm E 
171734Z 1718/1818 31007KT P6SM -SHSN BKN035 FM172300 VRB04KT P6SM BKN040 FM180100 VRB04KT P6SM SCT040 FM181400 23006KT P6SM FEW035 SCT200
NOTAMs
Click for the latest NOTAMs
NOTAMs are issued by the DoD/FAA and will open in a separate window not controlled by AirNav.

 

 
 

Would you like to see your business listed on this page?

 If your business provides an interesting product or service to pilots, flight crews, aircraft, or users of the Atlanta Municipal Airport, you should consider listing it here.  To start the listing process, click on the button below
 
Add a business
 

Other Pages about Atlanta Municipal Airport

Page from the Michigan Airport Directory (PDF)
 
Update a link
 
Copyright © AirNav, LLC. All rights reserved. Privacy Policy  Contact